Location: C�an Torras
(41.5052°N, 1.9280°E)
Time: 18:51:51
(UTC+00:00)

CORIOLIS - Pass Details

Date: 20 January 2021
Orbit: 818 x 839 km, 98.7° (Epoch: 03 March)

Event Time Altitude Azimuth Distance (km) Brightness Sun altitude
Rises 17:11:10 0° 158° (SSE) 3,366 7.4 -3.8°
Reaches altitude 10° 17:13:31 10° 156° (SSE) 2,434 6.6 -4.2°
Maximum altitude 17:18:53 71° 74° (ENE) 877 4.2 -5.2°
Drops below altitude 10° 17:24:15 10° 351° (N) 2,436 6.5 -6.1°
Sets 17:26:37 0° 349° (N) 3,370 7.2 -6.5°
